DW7589 Weather Reports


time (UTC)temp
C
wind
direction
speed
KPH
gust
KPH
rain 1hr
cm
rain 24hr
cm
rain mn
cm
humidity
%
barometer
mb
20260902013744 32 0 0.0 3.2 0.00 0.00 0.00 49 1012.4
20260902013243 32 0 0.0 3.2 0.00 0.00 0.00 48 1012.4
20260902012743 33 0 0.0 0.0 0.00 0.00 0.00 48 1012.3
20260902012243 33 0 0.0 0.0 0.00 0.00 0.00 47 1012.4
20260902011743 33 0 0.0 1.6 0.00 0.00 0.00 47 1012.3
20260902011242 33 0 0.0 3.2 0.00 0.00 0.00 46 1012.3
20260902010743 33 0 0.0 3.2 0.00 0.00 0.00 46 1012.3
20260902010242 33 0 0.0 3.2 0.00 0.00 0.00 45 1012.2
20260902005743 34 130 1.6 3.2 0.00 0.00 0.00 44 1012.2
20260902005243 34 137 1.6 3.2 0.00 0.00 0.00 44 1012.2
20260902004744 34 139 1.6 3.2 0.00 0.00 0.00 43 1012.2
20260902003743 35 132 1.6 3.2 0.00 0.00 0.00 43 1012.1
20260902003243 35 129 1.6 4.8 0.00 0.00 0.00 42 1012.1
20260902002743 35 128 1.6 4.8 0.00 0.00 0.00 42 1012.2
20260902002242 35 120 1.6 6.4 0.00 0.00 0.00 42 1012.1
20260902001743 35 123 1.6 6.4 0.00 0.00 0.00 42 1012.2
20260902001243 35 131 1.6 6.4 0.00 0.00 0.00 42 1012.2
20260902000744 35 136 3.2 9.7 0.00 0.00 0.00 41 1012.3
20260901235743 36 138 3.2 9.7 0.00 0.00 0.00 40 1012.3
20260901235243 36 142 3.2 9.7 0.00 0.00 0.00 40 1012.3
20260901234743 36 140 4.8 8.0 0.00 0.00 0.00 40 1012.4
20260901234243 36 140 4.8 11.3 0.00 0.00 0.00 40 1012.4
20260901233743 36 141 4.8 11.3 0.00 0.00 0.00 40 1012.4
20260901233243 36 139 3.2 9.7 0.00 0.00 0.00 39 1012.4
20260901232743 36 129 3.2 8.0 0.00 0.00 0.00 39 1012.5
20260901231243 36 132 4.8 9.7 0.00 0.00 0.00 38 1012.5
20260901230743 36 133 4.8 8.0 0.00 0.00 0.00 38 1012.5
20260901230243 36 136 3.2 6.4 0.00 0.00 0.00 39 1012.5
20260901225743 36 141 3.2 8.0 0.00 0.00 0.00 38 1012.4
20260901223743 37 132 4.8 8.0 0.00 0.00 0.00 37 1012.6
20260901223243 37 122 3.2 9.7 0.00 0.00 0.00 36 1012.6
20260901221744 36 106 1.6 8.0 0.00 0.00 0.00 39 1012.5
20260901220744 36 120 3.2 8.0 0.00 0.00 0.00 39 1012.6
20260901215744 36 142 4.8 9.7 0.00 0.00 0.00 40 1012.7
20260901215243 36 143 4.8 9.7 0.00 0.00 0.00 39 1012.8
20260901214743 36 138 4.8 8.0 0.00 0.00 0.00 39 1012.7
20260901213743 36 126 4.8 11.3 0.00 0.00 0.00 39 1012.8
20260901213244 37 135 6.4 12.9 0.00 0.00 0.00 39 1012.8
20260901212744 37 142 6.4 14.5 0.00 0.00 0.00 39 1012.7
20260901212244 37 142 4.8 14.5 0.00 0.00 0.00 38 1012.8
20260901211743 38 154 3.2 11.3 0.00 0.00 0.00 37 1012.9
20260901211243 38 158 4.8 11.3 0.00 0.00 0.00 36 1013.1
20260901210742 38 148 4.8 14.5 0.00 0.00 0.00 37 1013.1
20260901210242 38 146 4.8 14.5 0.00 0.00 0.00 37 1013.2
20260901205243 37 155 4.8 12.9 0.00 0.00 0.00 38 1013.2
20260901204743 38 170 3.2 12.9 0.00 0.00 0.00 37 1013.3
20260901204243 37 194 1.6 6.4 0.00 0.00 0.00 39 1013.3
20260901203745 37 189 3.2 12.9 0.00 0.00 0.00 38 1013.4
20260901203243 37 170 4.8 12.9 0.00 0.00 0.00 38 1013.5
20260901202245 37 178 3.2 8.0 0.00 0.00 0.00 39 1013.5
20260901201744 37 166 4.8 12.9 0.00 0.00 0.00 39 1013.6
20260901201242 37 164 4.8 12.9 0.00 0.00 0.00 40 1013.7
20260901200743 37 168 4.8 8.0 0.00 0.00 0.00 40 1013.7
20260901195743 37 160 3.2 12.9 0.00 0.00 0.00 39 1013.9
20260901195244 37 147 3.2 9.7 0.00 0.00 0.00 39 1013.9
20260901194743 37 139 4.8 8.0 0.00 0.00 0.00 40 1014.0
20260901194243 36 141 4.8 12.9 0.00 0.00 0.00 40 1014.1
20260901193744 36 157 4.8 12.9 0.00 0.00 0.00 41 1014.2
20260901193245 36 170 3.2 11.3 0.00 0.00 0.00 41 1014.1
20260901192743 36 162 4.8 11.3 0.00 0.00 0.00 40 1014.3
20260901191744 36 164 3.2 11.3 0.00 0.00 0.00 41 1014.3
20260901191243 36 164 4.8 11.3 0.00 0.00 0.00 41 1014.5
20260901190243 36 155 4.8 12.9 0.00 0.00 0.00 41 1014.6
20260901185744 36 161 3.2 11.3 0.00 0.00 0.00 42 1014.7
20260901185243 36 154 3.2 11.3 0.00 0.00 0.00 42 1014.8
20260901184743 36 153 4.8 12.9 0.00 0.00 0.00 42 1014.8
20260901182244 35 158 4.8 12.9 0.00 0.00 0.00 44 1015.4
20260901181743 35 168 4.8 12.9 0.00 0.00 0.00 44 1015.5
20260901180744 35 152 4.8 12.9 0.00 0.00 0.00 44 1015.6
20260901180244 35 166 4.8 11.3 0.00 0.00 0.00 45 1015.8
20260901175744 35 169 4.8 9.7 0.00 0.00 0.00 46 1015.9
20260901175243 35 183 4.8 9.7 0.00 0.00 0.00 45 1016.0
20260901174743 35 179 4.8 8.0 0.00 0.00 0.00 46 1016.0
20260901174243 35 149 3.2 12.9 0.00 0.00 0.00 45 1016.1
20260901173743 35 165 3.2 12.9 0.00 0.00 0.00 46 1016.2
20260901173243 35 152 3.2 8.0 0.00 0.00 0.00 45 1016.2
20260901172743 35 128 4.8 11.3 0.00 0.00 0.00 45 1016.4
20260901172244 35 130 4.8 11.3 0.00 0.00 0.00 45 1016.4
20260901171743 35 126 3.2 9.7 0.00 0.00 0.00 46 1016.4
20260901171244 35 124 4.8 9.7 0.00 0.00 0.00 46 1016.4
20260901170743 35 126 4.8 11.3 0.00 0.00 0.00 45 1016.4
20260901170243 35 135 3.2 11.3 0.00 0.00 0.00 47 1016.5
20260901165743 35 147 3.2 8.0 0.00 0.00 0.00 48 1016.5
20260901165244 35 137 3.2 8.0 0.00 0.00 0.00 48 1016.5
20260901164744 34 137 4.8 9.7 0.00 0.00 0.00 48 1016.5
20260901164244 34 141 4.8 9.7 0.00 0.00 0.00 50 1016.6
20260901163744 34 127 4.8 9.7 0.00 0.00 0.00 49 1016.7
20260901163244 34 121 3.2 9.7 0.00 0.00 0.00 50 1016.8
20260901162745 34 136 3.2 9.7 0.00 0.00 0.00 50 1016.8
20260901162243 33 160 3.2 9.7 0.00 0.00 0.00 51 1016.9
20260901161745 33 205 3.2 9.7 0.00 0.00 0.00 50 1016.9
20260901161244 33 230 3.2 8.0 0.00 0.00 0.00 51 1016.9
20260901160743 33 183 3.2 8.0 0.00 0.00 0.00 51 1016.9
20260901160243 33 147 3.2 8.0 0.00 0.00 0.00 52 1016.9
20260901155744 33 141 3.2 9.7 0.00 0.00 0.00 52 1016.9
20260901154743 33 158 3.2 8.0 0.00 0.00 0.00 52 1017.0
20260901154245 33 152 3.2 11.3 0.00 0.00 0.00 53 1017.0
20260901153744 33 150 3.2 11.3 0.00 0.00 0.00 53 1017.0
20260901152744 33 151 1.6 6.4 0.00 0.00 0.00 53 1017.0
20260901152243 32 167 1.6 6.4 0.00 0.00 0.00 54 1017.0
20260901151243 32 182 3.2 9.7 0.00 0.00 0.00 56 1017.1
20260901150743 32 164 3.2 6.4 0.00 0.00 0.00 56 1017.1
20260901150244 32 197 1.6 6.4 0.00 0.00 0.00 55 1017.1
20260901145743 32 187 1.6 4.8 0.00 0.00 0.00 56 1017.2
20260901145243 32 166 1.6 6.4 0.00 0.00 0.00 58 1017.2
20260901144743 31 186 1.6 6.4 0.00 0.00 0.00 57 1017.1
20260901143745 31 159 1.6 4.8 0.00 0.00 0.00 60 1017.1
20260901142743 30 222 1.6 4.8 0.00 0.00 0.00 62 1017.1
20260901142245 30 209 1.6 4.8 0.00 0.00 0.00 62 1017.1
20260901141744 30 202 1.6 3.2 0.00 0.00 0.00 63 1017.1
20260901141245 30 231 1.6 4.8 0.00 0.00 0.00 65 1017.2
20260901140744 29 239 1.6 4.8 0.00 0.00 0.00 66 1017.1
20260901140245 28 203 1.6 4.8 0.00 0.00 0.00 71 1017.2
20260901135743 28 186 1.6 4.8 0.00 0.00 0.00 71 1017.1
20260901135245 28 0 0.0 3.2 0.00 0.00 0.00 73 1017.1
20260901134743 28 0 0.0 3.2 0.00 0.00 0.00 74 1017.1
20260901133744 27 141 1.6 4.8 0.00 0.00 0.00 77 1017.1
20260901133244 27 129 3.2 4.8 0.00 0.00 0.00 79 1017.1
20260901132744 27 130 3.2 4.8 0.00 0.00 0.00 79 1017.1
20260901132243 26 139 1.6 4.8 0.00 0.00 0.00 80 1017.1
20260901131743 26 141 1.6 3.2 0.00 0.00 0.00 80 1017.1
20260901131244 26 142 1.6 3.2 0.00 0.00 0.00 81 1017.0
20260901130744 26 0 0.0 3.2 0.00 0.00 0.00 82 1017.0
20260901130243 26 0 0.0 3.2 0.00 0.00 0.00 82 1016.9
20260901125744 25 135 1.6 3.2 0.00 0.00 0.00 82 1016.9
20260901125245 25 143 1.6 3.2 0.00 0.00 0.00 82 1016.8
20260901124745 25 157 1.6 3.2 0.00 0.00 0.00 82 1016.7
20260901124244 25 0 0.0 3.2 0.00 0.00 0.00 83 1016.6
20260901123745 25 0 0.0 1.6 0.00 0.00 0.00 83 1016.5
20260901123243 25 0 0.0 1.6 0.00 0.00 0.00 84 1016.5
20260901122745 25 0 0.0 1.6 0.00 0.00 0.00 84 1016.5
20260901122244 25 0 0.0 1.6 0.00 0.00 0.00 84 1016.4
20260901121744 25 0 0.0 0.0 0.00 0.00 0.00 84 1016.3
20260901121243 25 0 0.0 1.6 0.00 0.00 0.00 85 1016.2
20260901120744 25 0 0.0 1.6 0.00 0.00 0.00 85 1016.3
20260901120244 24 0 0.0 1.6 0.00 0.00 0.00 86 1016.3
20260901115244 24 0 0.0 0.0 0.00 0.00 0.00 85 1016.3
20260901114744 24 0 0.0 0.0 0.00 0.00 0.00 85 1016.3
20260901114243 24 0 0.0 1.6 0.00 0.00 0.00 85 1016.2
20260901113744 24 0 0.0 1.6 0.00 0.00 0.00 85 1016.2
20260901113243 24 0 0.0 1.6 0.00 0.00 0.00 85 1016.2
20260901112743 24 0 0.0 0.0 0.00 0.00 0.00 84 1016.2
20260901112243 24 0 0.0 0.0 0.00 0.00 0.00 84 1016.2
20260901111743 25 0 0.0 0.0 0.00 0.00 0.00 83 1016.1
20260901111244 25 0 0.0 0.0 0.00 0.00 0.00 82 1016.1
20260901110745 25 0 0.0 0.0 0.00 0.00 0.00 82 1016.1
20260901110244 25 0 0.0 0.0 0.00 0.00 0.00 82 1016.0
20260901105744 25 0 0.0 0.0 0.00 0.00 0.00 81 1016.0
20260901105244 25 0 0.0 0.0 0.00 0.00 0.00 80 1016.1
20260901104244 25 0 0.0 0.0 0.00 0.00 0.00 80 1016.1
20260901103743 25 0 0.0 1.6 0.00 0.00 0.00 79 1016.0
20260901103244 25 0 0.0 1.6 0.00 0.00 0.00 79 1016.0
20260901102744 25 0 0.0 0.0 0.00 0.00 0.00 78 1016.0
20260901102243 25 0 0.0 0.0 0.00 0.00 0.00 78 1015.9
20260901101744 26 0 0.0 0.0 0.00 0.00 0.00 77 1015.9
20260901101244 26 0 0.0 1.6 0.00 0.00 0.00 77 1015.9
20260901100743 26 0 0.0 1.6 0.00 0.00 0.00 76 1015.9
20260901100243 26 0 0.0 3.2 0.00 0.00 0.00 76 1015.9
20260901095244 26 0 0.0 3.2 0.00 0.00 0.00 76 1015.9
20260901094743 26 0 0.0 1.6 0.00 0.00 0.00 75 1015.8
20260901094243 26 0 0.0 0.0 0.00 0.00 0.00 75 1015.8
20260901093744 26 0 0.0 0.0 0.00 0.00 0.00 75 1015.8
20260901093244 26 0 0.0 0.0 0.00 0.00 0.00 75 1015.8
20260901092743 26 0 0.0 1.6 0.00 0.00 0.00 75 1015.8
20260901092244 26 0 0.0 1.6 0.00 0.00 0.00 74 1015.8
20260901091743 26 0 0.0 1.6 0.00 0.00 0.00 74 1015.8
20260901091244 26 0 0.0 1.6 0.00 0.00 0.00 73 1015.9
20260901090745 27 0 0.0 0.0 0.00 0.00 0.00 73 1015.8
20260901090243 27 0 0.0 1.6 0.00 0.00 0.00 73 1015.8
20260901085744 27 0 0.0 1.6 0.00 0.00 0.00 73 1015.7
20260901085243 27 0 0.0 0.0 0.00 0.00 0.00 73 1015.7
20260901084745 27 0 0.0 1.6 0.00 0.00 0.00 72 1015.6
20260901084244 27 0 0.0 1.6 0.00 0.00 0.00 72 1015.6
20260901083743 27 0 0.0 1.6 0.00 0.00 0.00 71 1015.6
20260901082744 27 0 0.0 1.6 0.00 0.00 0.00 70 1015.6
20260901081745 27 0 0.0 1.6 0.00 0.00 0.00 69 1015.5
20260901081244 27 0 0.0 1.6 0.00 0.00 0.00 69 1015.5
20260901080745 27 0 0.0 1.6 0.00 0.00 0.00 69 1015.5
20260901080244 27 0 0.0 3.2 0.00 0.00 0.00 69 1015.5
20260901075745 27 175 1.6 3.2 0.00 0.00 0.00 68 1015.5
20260901075243 27 175 1.6 3.2 0.00 0.00 0.00 68 1015.5
20260901074745 27 171 1.6 3.2 0.00 0.00 0.00 67 1015.4
20260901074245 27 170 1.6 3.2 0.00 0.00 0.00 67 1015.4
20260901073743 27 172 1.6 3.2 0.00 0.00 0.00 67 1015.5
20260901073243 27 168 1.6 4.8 0.00 0.00 0.00 66 1015.5
20260901072744 27 165 1.6 4.8 0.00 0.00 0.00 65 1015.4
20260901072244 27 168 1.6 4.8 0.00 0.00 0.00 65 1015.4
20260901071744 27 173 1.6 4.8 0.00 0.00 0.00 64 1015.4
20260901071245 27 171 1.6 4.8 0.00 0.00 0.00 64 1015.5
20260901070743 28 172 1.6 4.8 0.00 0.00 0.00 64 1015.4
20260901070246 28 170 1.6 4.8 0.00 0.00 0.00 63 1015.4
20260901065743 28 171 1.6 4.8 0.00 0.00 0.00 63 1015.3
20260901065243 28 176 3.2 6.4 0.00 0.00 0.00 62 1015.3
20260901064743 28 175 3.2 6.4 0.00 0.00 0.00 62 1015.4
20260901064244 28 173 3.2 6.4 0.00 0.00 0.00 61 1015.4
20260901063744 28 168 1.6 8.0 0.00 0.00 0.00 61 1015.3
20260901062744 28 169 1.6 6.4 0.00 0.00 0.00 61 1015.2
20260901062245 28 171 1.6 6.4 0.00 0.00 0.00 60 1015.1
20260901060744 28 174 3.2 6.4 0.00 0.00 0.00 59 1015.1
20260901060244 29 177 3.2 8.0 0.00 0.00 0.00 59 1015.1
20260901055744 29 175 3.2 8.0 0.00 0.00 0.00 58 1014.9
20260901055244 29 173 3.2 8.0 0.00 0.00 0.00 58 1014.8
20260901054744 29 170 3.2 9.7 0.00 0.00 0.00 58 1014.9
20260901054244 29 163 3.2 9.7 0.00 0.00 0.00 58 1014.9
20260901053244 29 160 3.2 8.0 0.00 0.00 0.00 58 1014.9
20260901052745 29 158 3.2 8.0 0.00 0.00 0.00 58 1014.9
20260901052244 29 157 3.2 6.4 0.00 0.00 0.00 58 1015.0
20260901050744 29 157 3.2 8.0 0.00 0.00 0.00 57 1014.7
20260901050244 29 157 3.2 4.8 0.00 0.00 0.00 57 1014.7
20260901045745 29 158 1.6 4.8 0.00 0.00 0.00 56 1014.6
20260901045244 29 162 1.6 4.8 0.00 0.00 0.00 55 1014.6
20260901044243 28 0 0.0 4.8 0.00 0.00 0.00 52 1014.5
20260901043744 28 0 0.0 1.6 0.00 0.00 0.00 51 1014.5
20260901042745 29 170 1.6 4.8 0.00 0.00 0.00 50 1014.5
20260901041744 29 0 0.0 1.6 0.00 0.00 0.00 50 1014.3
20260901041244 29 0 0.0 1.6 0.00 0.00 0.00 50 1014.2
20260901040744 29 0 0.0 1.6 0.00 0.00 0.00 51 1014.2
20260901040244 30 0 0.0 1.6 0.00 0.00 0.00 54 1014.2
20260901034744 30 0 0.0 1.6 0.00 0.00 0.00 53 1014.2
20260901034244 30 0 0.0 1.6 0.00 0.00 0.00 52 1014.2
20260901033244 30 0 0.0 1.6 0.00 0.00 0.00 53 1014.0
20260901032744 30 0 0.0 1.6 0.00 0.00 0.00 54 1014.0
20260901032244 30 0 0.0 1.6 0.00 0.00 0.00 53 1014.0
20260901031744 30 0 0.0 1.6 0.00 0.00 0.00 53 1014.0
20260901031244 30 0 0.0 1.6 0.00 0.00 0.00 52 1013.9
20260901030744 30 0 0.0 1.6 0.00 0.00 0.00 51 1013.9
20260901030244 31 0 0.0 1.6 0.00 0.00 0.00 51 1013.9
20260901025743 31 0 0.0 1.6 0.00 0.00 0.00 50 1013.8
20260901025244 31 0 0.0 1.6 0.00 0.00 0.00 49 1013.8
20260901024744 30 0 0.0 1.6 0.00 0.00 0.00 49 1013.7
20260901024244 31 0 0.0 1.6 0.00 0.00 0.00 48 1013.7
20260901023744 31 158 1.6 1.6 0.00 0.00 0.00 47 1013.7
20260901022744 31 158 1.6 1.6 0.00 0.00 0.00 47 1013.6
20260901022244 31 0 0.0 1.6 0.00 0.00 0.00 47 1013.5
20260901021744 31 0 0.0 1.6 0.00 0.00 0.00 47 1013.5
20260901021244 31 0 0.0 1.6 0.00 0.00 0.00 47 1013.4
20260901020744 31 0 0.0 1.6 0.00 0.00 0.00 46 1013.3
20260901020244 31 0 0.0 1.6 0.00 0.00 0.00 46 1013.3
20260901015745 32 0 0.0 1.6 0.00 0.00 0.00 45 1013.2
20260901015244 32 0 0.0 1.6 0.00 0.00 0.00 45 1013.2
20260901014744 32 0 0.0 1.6 0.00 0.00 0.00 44 1013.1
20260901014244 32 158 1.6 3.2 0.00 0.00 0.00 43 1013.1